{"data":{"norad_id":64923,"epoch":"2026-09-20T10:11:45.259296Z","epoch_age_seconds":130719,"freshness":"FRESH","line1":"1 64923U 25157V   26263.42482939  .00013306  00000+0  40408-3 0  9995","line2":"2 64923  53.1586 157.9466 0001139  96.1145 263.9987 15.34413154 65985","mean_motion":15.34413154,"eccentricity":0.0001139,"inclination_deg":53.1586,"raan_deg":157.9466,"arg_perigee_deg":96.1145,"mean_anomaly_deg":263.9987,"bstar":0.00040408,"rev_number":6598,"period_min":93.846953556552,"perigee_km":461.88497677602,"apogee_km":463.44331127663,"semimajor_km":6840.8011440263,"source":"CELESTRAK","updated_at":"2026-09-21T09:00:35.483616Z"}}